Alma, GA

12:50 AM EST on December 18, 2017 (GMT -0500)
Bacon County

Weather History for KAMG - April, 2013

Change the Weather History Date:

Friday, April 12, 2013

  Actual Average Record
Temperature  
Mean Temperature 72 °F 65 °F  
Max Temperature 84 °F 78 °F 89 °F (1965)
Min Temperature 59 °F 53 °F 36 °F (1989)
Degree Days  
Heating Degree Days 0 2  
Month to date heating degree days 44 36  
Since 1 July heating degree days 1571 1625  
Cooling Degree Days 7 3  
Month to date cooling degree days 29 29  
Year to date cooling degree days 62 83  
Growing Degree Days 22 (Base 50)    
Moisture  
Dew Point 66 °F    
Average Humidity 77    
Maximum Humidity 100    
Minimum Humidity 53    
Precipitation  
Precipitation 0.05 in 0.11 in 1.58 in (1953)
Month to date precipitation 0.54 1.31  
Year to date precipitation 12.94 14.12  
Snow  
Snow 0.00 in 0.00 in 0.00 in ()
Month to date snowfall 0.0 0.0  
Since 1 July snowfall T 0.1  
Snow Depth 0.00 in    
Sea Level Pressure  
Sea Level Pressure 29.80 in    
Wind  
Wind Speed 8 mph (SW)    
Max Wind Speed 22 mph    
Max Gust Speed 32 mph    
Visibility 9 miles    
Events      
T = Trace of Precipitation, MM = Missing Value Source: NWS Daily Summary

Daily Weather History Graph

Daily Weather History Graph

Search for Another Location

Airport or City:

Trip Planner

Search our weather history database for the weather conditions in past years. The results will help you decide how hot, cold, wet, or windy it might be!

Date:

Astronomy

Apr. 12, 2013 Rise Set
Actual Time 7:04 AM EDT 7:57 PM EDT
Civil Twilight 6:40 AM EDT 8:21 PM EDT
Nautical Twilight 6:10 AM EDT 8:51 PM EDT
Astronomical Twilight 5:40 AM EDT 9:21 PM EDT
Moon 8:21 AM EDT (4/12) 10:17 PM EDT (4/12)
Length of Visible Light 13h 41m
Length of Day
12h 52m
Waxing Crescent, 5% of the Moon is Illuminated
Apr 12
Waxing Crescent
Apr 18
First Quarter
Apr 25
Full
May 2
Last Quarter
May 9
New

Hourly Weather History & Observations

Time (EDT) Temp. Heat Index Dew Point Humidity Pressure Visibility Wind Dir Wind Speed Gust Speed Precip Events Conditions
12:41 AM 71.6 °F - 69.8 °F 94% 29.85 in 8.0 mi South 3.5 mph - N/A   Overcast
12:50 AM 71.6 °F - 69.8 °F 94% 29.85 in 7.0 mi South 4.6 mph - N/A   Mostly Cloudy
12:53 AM 72.0 °F - 69.1 °F 91% 29.84 in 7.0 mi South 3.5 mph - N/A   Mostly Cloudy
1:53 AM 71.1 °F - 69.1 °F 93% 29.83 in 8.0 mi South 5.8 mph - 0.02 in   Overcast
2:53 AM 70.0 °F - 68.0 °F 93% 29.77 in 10.0 mi South 8.1 mph - 0.03 in   Partly Cloudy
3:53 AM 69.1 °F - 68.0 °F 96% 29.75 in 9.0 mi South 8.1 mph - N/A   Partly Cloudy
4:53 AM 69.1 °F - 68.0 °F 96% 29.75 in 9.0 mi SSW 5.8 mph - N/A   Mostly Cloudy
5:19 AM 69.8 °F - 68.0 °F 94% 29.76 in 9.0 mi SSW 6.9 mph - N/A   Mostly Cloudy
5:38 AM 69.8 °F - 68.0 °F 94% 29.75 in 9.0 mi SSW 6.9 mph - N/A   Mostly Cloudy
5:53 AM 69.1 °F - 68.0 °F 96% 29.75 in 9.0 mi SSW 5.8 mph - N/A   Mostly Cloudy
6:53 AM 68.0 °F - 68.0 °F 100% 29.75 in 9.0 mi South 3.5 mph - N/A   Overcast
7:53 AM 69.1 °F - 68.0 °F 96% 29.77 in 8.0 mi SSW 3.5 mph - N/A   Overcast
8:27 AM 69.8 °F - 68.0 °F 94% 29.79 in 8.0 mi SSW 3.5 mph - N/A   Overcast
8:53 AM 70.0 °F - 69.1 °F 97% 29.79 in 8.0 mi SSW 6.9 mph - N/A   Overcast
9:01 AM 71.6 °F - 69.8 °F 94% 29.79 in 8.0 mi SSW 4.6 mph - N/A   Overcast
9:53 AM 73.0 °F - 69.1 °F 87% 29.79 in 9.0 mi SSW 9.2 mph - N/A   Overcast
10:53 AM 73.9 °F - 69.1 °F 85% 29.80 in 10.0 mi SW 12.7 mph - N/A   Overcast
11:18 AM 78.8 °F - 69.8 °F 74% 29.80 in 10.0 mi SW 12.7 mph - N/A   Overcast
11:33 AM 78.8 °F - 69.8 °F 74% 29.80 in 10.0 mi SW 18.4 mph 25.3 mph N/A   Overcast
11:41 AM 78.8 °F - 69.8 °F 74% 29.80 in 10.0 mi WSW 12.7 mph 24.2 mph N/A   Overcast
11:53 AM 78.1 °F - 68.0 °F 71% 29.80 in 10.0 mi SW 18.4 mph 29.9 mph N/A   Mostly Cloudy
12:53 PM 80.1 °F 82.3 °F 66.9 °F 64% 29.79 in 10.0 mi SW 16.1 mph 29.9 mph N/A   Mostly Cloudy
1:53 PM 82.0 °F 84.5 °F 66.9 °F 60% 29.78 in 10.0 mi SW 21.9 mph 32.2 mph N/A   Scattered Clouds
2:53 PM 78.1 °F - 68.0 °F 71% 29.78 in 10.0 mi West 12.7 mph 18.4 mph N/A   Overcast
3:53 PM 80.1 °F 82.1 °F 66.0 °F 62% 29.77 in 10.0 mi WNW 10.4 mph - N/A   Mostly Cloudy
4:53 PM 79.0 °F - 63.0 °F 58% 29.78 in 10.0 mi West 10.4 mph - N/A   Overcast
5:53 PM 75.9 °F - 61.0 °F 60% 29.79 in 10.0 mi West 9.2 mph - N/A   Mostly Cloudy
6:53 PM 77.0 °F - 59.0 °F 54% 29.80 in 10.0 mi West 8.1 mph - N/A   Partly Cloudy
7:53 PM 73.9 °F - 55.9 °F 53% 29.81 in 10.0 mi West 3.5 mph - N/A   Clear
8:53 PM 70.0 °F - 53.1 °F 55% 29.83 in 10.0 mi Calm Calm - N/A   Clear
9:53 PM 64.0 °F - 55.9 °F 75% 29.86 in 10.0 mi NW 3.5 mph - N/A   Clear
10:53 PM 62.1 °F - 55.0 °F 78% 29.89 in 10.0 mi Calm Calm - N/A   Clear
11:53 PM 60.1 °F - 51.1 °F 72% 29.90 in 10.0 mi Calm Calm - N/A   Clear